Weather History for KAEX - December, 2009

Change the Weather History Date:

Sunday, December 20, 2009

  Actual Average Record
Temperature  
Mean Temperature 44 °F 50 °F  
Max Temperature 56 °F 60 °F 78 °F (1951)
Min Temperature 32 °F 40 °F 18 °F (1901)
Degree Days  
Heating Degree Days 21 15  
Month to date heating degree days 349 289  
Since 1 July heating degree days 646 614  
Moisture  
Dew Point 35 °F    
Average Humidity 72    
Maximum Humidity 96    
Minimum Humidity 47    
Precipitation  
Precipitation 0.00 in 0.17 in 3.55 in (1923)
Month to date precipitation 6.60 4.45  
Year to date precipitation 54.26 54.25  
Snow  
Snow 0.00 in - 0.00 in ()
Month to date snowfall 0.2  
Since 1 July snowfall 0.2  
Snow Depth 0.00 in    
Sea Level Pressure  
Sea Level Pressure 30.28 in    
Wind  
Wind Speed 2 mph (NW)    
Max Wind Speed 8 mph    
Max Gust Speed 12 mph    
Visibility 7 miles    
Events      
T = Trace of Precipitation, MM = Missing Value Source: NWS Daily Summary

Daily Weather History Graph

Daily Weather History Graph

Search for Another Location

Airport or City:

Trip Planner

Search our weather history database for the weather conditions in past years. The results will help you decide how hot, cold, wet, or windy it might be!

Date:

Astronomy

Dec. 20, 2009 Rise Set
Actual Time 7:04 AM CST 5:11 PM CST
Civil Twilight 6:37 AM CST 5:38 PM CST
Nautical Twilight 6:07 AM CST 6:08 PM CST
Astronomical Twilight 5:37 AM CST 6:38 PM CST
Moon 9:54 AM CST (12/20) 9:05 PM CST (12/20)
Length of Visible Light 11h 00m
Length of Day
10h 06m
Waxing Crescent, 16% of the Moon is Illuminated
Dec 20
Waxing Crescent
Dec 24
First Quarter
Dec 31
Full
Jan 7
Last Quarter
Jan 15
New

Hourly Weather History & Observations

Time (CST) Temp. Windchill Dew Point Humidity Pressure Visibility Wind Dir Wind Speed Gust Speed Precip Events Conditions
12:53 AM 39.0 °F 34.8 °F 35.1 °F 86% 30.24 in 9.0 mi NW 5.8 mph - N/A   Clear
1:53 AM 37.9 °F 33.5 °F 34.0 °F 86% 30.25 in 8.0 mi NW 5.8 mph - N/A   Clear
2:53 AM 36.0 °F 32.1 °F 33.1 °F 89% 30.26 in 7.0 mi NW 4.6 mph - N/A   Clear
3:53 AM 35.1 °F 32.2 °F 33.1 °F 92% 30.27 in 6.0 mi NW 3.5 mph - N/A   Clear
4:53 AM 34.0 °F 31.0 °F 32.0 °F 92% 30.26 in 5.0 mi NW 3.5 mph - N/A   Clear
5:53 AM 34.0 °F 31.0 °F 32.0 °F 92% 30.27 in 4.0 mi WNW 3.5 mph - N/A   Clear
6:53 AM 32.0 °F 26.4 °F 30.0 °F 92% 30.30 in 4.0 mi NNW 5.8 mph - N/A   Clear
7:53 AM 33.1 °F 30.0 °F 32.0 °F 96% 30.32 in 3.0 mi NW 3.5 mph - N/A   Clear
8:53 AM 37.0 °F 34.5 °F 33.1 °F 86% 30.33 in 4.0 mi NNW 3.5 mph - N/A   Clear
9:53 AM 41.0 °F - 34.0 °F 76% 30.35 in 5.0 mi Calm Calm - N/A   Haze
10:53 AM 45.0 °F - 35.1 °F 68% 30.34 in 6.0 mi Calm Calm - N/A   Haze
11:53 AM 46.9 °F - 35.1 °F 63% 30.31 in 6.0 mi SE 3.5 mph - N/A   Haze
12:53 PM 50.0 °F - 34.0 °F 54% 30.27 in 7.0 mi Calm Calm - N/A   Clear
1:53 PM 53.1 °F - 36.0 °F 52% 30.26 in 8.0 mi Calm Calm - N/A   Clear
2:53 PM 54.0 °F - 35.1 °F 49% 30.25 in 8.0 mi Calm Calm - N/A   Clear
3:53 PM 55.9 °F - 36.0 °F 47% 30.26 in 9.0 mi NW 4.6 mph - N/A   Clear
4:53 PM 54.0 °F - 37.0 °F 53% 30.26 in 9.0 mi Calm Calm - N/A   Clear
5:53 PM 46.9 °F - 37.0 °F 68% 30.26 in 10.0 mi Calm Calm - N/A   Clear
6:24 PM 44.6 °F - 37.4 °F 76% 30.24 in 1.8 mi Calm Calm - N/A   Haze
6:37 PM 44.6 °F - 37.4 °F 76% 30.24 in 10.0 mi Calm Calm - N/A   Clear
6:53 PM 44.1 °F - 37.0 °F 76% 30.27 in 10.0 mi Calm Calm - N/A   Clear
7:53 PM 41.0 °F - 37.0 °F 86% 30.27 in 8.0 mi Calm Calm - N/A   Clear
8:53 PM 39.9 °F 36.7 °F 36.0 °F 86% 30.28 in 8.0 mi SE 4.6 mph - N/A   Clear
9:53 PM 39.0 °F - 36.0 °F 89% 30.28 in 9.0 mi Calm Calm - N/A   Clear
10:53 PM 39.0 °F - 35.1 °F 86% 30.28 in 9.0 mi Calm Calm - N/A   Clear
11:53 PM 37.9 °F 35.5 °F 36.0 °F 93% 30.27 in 9.0 mi SE 3.5 mph - N/A   Clear